Weather History for KAPF - November, 2010

Change the Weather History Date:

Monday, November 8, 2010

  Actual Average Record
Temperature  
Mean Temperature 67 °F 74 °F  
Max Temperature 80 °F 83 °F 90 °F (1975)
Min Temperature 54 °F 65 °F 46 °F (1981)
Degree Days  
Heating Degree Days 0 0  
Month to date heating degree days 7 0  
Since 1 July heating degree days 7 1  
Cooling Degree Days 2 9  
Month to date cooling degree days 58 76  
Year to date cooling degree days 3734 3671  
Growing Degree Days 16 (Base 50)    
Moisture  
Dew Point 48 °F    
Average Humidity 55    
Maximum Humidity 77    
Minimum Humidity 32    
Precipitation  
Precipitation 0.00 in 0.06 in 0.78 in (1983)
Month to date precipitation 0.59 0.80  
Year to date precipitation 43.61 49.20  
Snow  
Snow 0.00 in - - ()
Month to date snowfall 0.0  
Since 1 July snowfall 0.0  
Since 1 September snowfall 0.0  
Snow Depth 0.00 in    
Sea Level Pressure  
Sea Level Pressure 30.06 in    
Wind  
Wind Speed 9 mph (NNE)    
Max Wind Speed 16 mph    
Max Gust Speed 24 mph    
Visibility 10 miles    
Events      
T = Trace of Precipitation, MM = Missing Value Source: NWS Daily Summary

Daily Weather History Graph

Daily Weather History Graph

Search for Another Location

Airport or City:

Trip Planner

Search our weather history database for the weather conditions in past years. The results will help you decide how hot, cold, wet, or windy it might be!

Date:

Astronomy

Nov. 08, 2010 Rise Set
Actual Time 6:40 AM EST 5:40 PM EST
Civil Twilight 6:16 AM EST 6:04 PM EST
Nautical Twilight 5:48 AM EST 6:32 PM EST
Astronomical Twilight 5:21 AM EST 6:59 PM EST
Moon 9:10 AM EST (11/8) 7:51 PM EST (11/8)
Length of Visible Light 11h 48m
Length of Day
11h 00m
Waxing Crescent, 8% of the Moon is Illuminated
Nov 8
Waxing Crescent
Nov 13
First Quarter
Nov 21
Full
Nov 28
Last Quarter
Dec 5
New

Hourly Weather History & Observations

Time (EST) Temp. Dew Point Humidity Pressure Visibility Wind Dir Wind Speed Gust Speed Precip Events Conditions
12:53 AM 57.9 °F 46.9 °F 67% 30.12 in 10.0 mi NNE 12.7 mph - N/A   Clear
1:53 AM 57.0 °F 46.9 °F 69% 30.10 in 10.0 mi NNE 10.4 mph - N/A   Clear
2:53 AM 55.9 °F 46.9 °F 72% 30.08 in 10.0 mi NNE 12.7 mph - N/A   Clear
3:53 AM 57.0 °F 46.9 °F 69% 30.07 in 10.0 mi NNE 13.8 mph - N/A   Clear
4:53 AM 55.9 °F 46.9 °F 72% 30.07 in 10.0 mi NNE 15.0 mph 20.7 mph N/A   Clear
5:53 AM 55.0 °F 46.9 °F 74% 30.07 in 10.0 mi NNE 12.7 mph - N/A   Clear
6:53 AM 54.0 °F 46.9 °F 77% 30.09 in 10.0 mi NNE 11.5 mph - N/A   Clear
7:53 AM 57.0 °F 46.9 °F 69% 30.10 in 10.0 mi NNE 11.5 mph - N/A   Clear
8:53 AM 63.0 °F 48.0 °F 58% 30.11 in 10.0 mi NE 13.8 mph - N/A   Clear
9:53 AM 68.0 °F 50.0 °F 52% 30.11 in 10.0 mi NE 10.4 mph - N/A   Clear
10:53 AM 72.0 °F 51.1 °F 48% 30.10 in 10.0 mi NNE 12.7 mph - N/A   Clear
11:53 AM 75.0 °F 52.0 °F 44% 30.08 in 10.0 mi NE 11.5 mph - N/A   Clear
12:53 PM 75.9 °F 50.0 °F 40% 30.05 in 10.0 mi NNE 10.4 mph 16.1 mph N/A   Clear
1:53 PM 77.0 °F 48.9 °F 37% 30.02 in 10.0 mi NE 8.1 mph - N/A   Clear
2:53 PM 78.8 °F 46.4 °F 32% 30.01 in 10.0 mi Variable 6.9 mph - N/A   Clear
3:53 PM 77.0 °F 46.9 °F 34% 30.00 in 10.0 mi North 9.2 mph - N/A   Clear
4:53 PM 75.0 °F 46.0 °F 36% 30.01 in 10.0 mi North 5.8 mph - N/A   Clear
5:53 PM 71.1 °F 46.0 °F 41% 30.02 in 10.0 mi North 3.5 mph - N/A   Clear
6:53 PM 68.0 °F 46.9 °F 47% 30.03 in 10.0 mi North 3.5 mph - N/A   Clear
7:53 PM 66.0 °F 46.9 °F 50% 30.04 in 10.0 mi Calm Calm - N/A   Clear
8:53 PM 64.0 °F 48.0 °F 56% 30.05 in 10.0 mi North 4.6 mph - N/A   Clear
9:53 PM 62.1 °F 48.9 °F 62% 30.05 in 10.0 mi Calm Calm - N/A   Clear
10:53 PM 61.0 °F 51.1 °F 70% 30.05 in 10.0 mi North 3.5 mph - N/A   Clear
11:53 PM 60.1 °F 50.0 °F 69% 30.04 in 10.0 mi North 5.8 mph - N/A   Clear